Location: Asheville, NC
(35.6000°N, 82.5500°W)
Time: 15:33:14
(UTC-04:00)

AO-7 - Pass Details

Date: 12 March 2018
Orbit: 1440 x 1458 km, 101.7° (Epoch: 24 June)

Event Time Altitude Azimuth Distance (km) Brightness Sun altitude
Rises 03:22:23 0° 37° (NE) 4,540 ? -50.0°
Reaches altitude 10° 03:26:53 10° 59° (ENE) 3,555 ? -49.3°
Maximum altitude 03:31:15 15° 92° (E) 3,163 ? -48.7°
Enters shadow 03:34:03 13° 114° (ESE) 3,326 ? -48.3°
